Weather History for Paducah, KY

Change the Weather History Date:

Friday, November 29, 2013

  Actual Average Record
Temperature  
Mean Temperature 37 °F 42 °F  
Max Temperature 53 °F 52 °F 73 °F (1998)
Min Temperature 21 °F 33 °F 13 °F (1976)
Degree Days  
Heating Degree Days 28 23  
Month to date heating degree days 570 487  
Since 1 July heating degree days 779 754  
Cooling Degree Days 0 0  
Month to date cooling degree days 0 0  
Year to date cooling degree days 1478 1538  
Moisture  
Dew Point 25 °F    
Average Humidity 63    
Maximum Humidity 88    
Minimum Humidity 38    
Precipitation  
Precipitation 0.00 in 0.17 in 1.90 in (2001)
Month to date precipitation 2.27 4.14  
Year to date precipitation 52.20 44.33  
Snow  
Snow 0.00 in 0.00 in T in (1979)
Month to date snowfall T 0.0  
Since 1 July snowfall T 0.1  
Since 1 September snowfall T 0.1  
Snow Depth 0.00 in    
Sea Level Pressure  
Sea Level Pressure 30.51 in    
Wind  
Wind Speed 3 mph (SE)    
Max Wind Speed 10 mph    
Max Gust Speed 13 mph    
Visibility 10 miles    
Events      
T = Trace of Precipitation, MM = Missing Value Source: NWS Daily Summary

Daily Weather History Graph

Daily Weather History Graph

Search for Another Location

Airport:

Trip Planner

Search our weather history database for the weather conditions in past years. The results will help you decide how hot, cold, wet, or windy it might be!

Date:

Astronomy

Nov. 29, 2013 Rise Set
Actual Time 6:48 AM CST 4:38 PM CST
Civil Twilight 6:19 AM CST 5:07 PM CST
Nautical Twilight 5:47 AM CST 5:39 PM CST
Astronomical Twilight 5:16 AM CST 6:10 PM CST
Moon 2:58 AM CST (11/29) 2:19 PM CST (11/29)
Length of Visible Light 10h 47m
Length of Day
9h 50m
Waning Crescent, 14% of the Moon is Illuminated
Nov 29
Waning Crescent
Dec 2
New
Dec 9
First Quarter
Dec 17
Full
Dec 25
Last Quarter

Hourly Weather History & Observations

Time (CST) Temp. Windchill Dew Point Humidity Pressure Visibility Wind Dir Wind Speed Gust Speed Precip Events Conditions
12:53 AM 24.1 °F - 21.0 °F 88% 30.49 in 10.0 mi Calm Calm - N/A   Clear
1:53 AM 24.1 °F - 19.9 °F 84% 30.50 in 10.0 mi Calm Calm - N/A   Clear
2:53 AM 24.1 °F - 19.9 °F 84% 30.51 in 10.0 mi Calm Calm - N/A   Clear
3:53 AM 24.1 °F - 19.0 °F 81% 30.52 in 10.0 mi Calm Calm - N/A   Clear
4:53 AM 21.9 °F - 17.1 °F 82% 30.54 in 10.0 mi Calm Calm - N/A   Clear
5:53 AM 23.0 °F - 19.0 °F 85% 30.56 in 8.0 mi Calm Calm - N/A   Clear
6:53 AM 23.0 °F - 19.0 °F 85% 30.57 in 9.0 mi Calm Calm - N/A   Clear
7:53 AM 28.9 °F - 24.1 °F 82% 30.58 in 8.0 mi Calm Calm - N/A   Clear
8:53 AM 35.1 °F 30.1 °F 28.9 °F 78% 30.59 in 9.0 mi ENE 5.8 mph - N/A   Clear
9:53 AM 41.0 °F 35.8 °F 28.9 °F 62% 30.59 in 10.0 mi ESE 8.1 mph - N/A   Clear
10:53 AM 45.0 °F 41.8 °F 28.9 °F 53% 30.57 in 10.0 mi East 5.8 mph - N/A   Clear
11:53 AM 48.9 °F - 28.9 °F 46% 30.55 in 10.0 mi ESE 4.6 mph - N/A   Clear
12:53 PM 51.1 °F - 28.9 °F 43% 30.53 in 10.0 mi East 5.8 mph - N/A   Clear
1:53 PM 52.0 °F - 28.0 °F 40% 30.51 in 10.0 mi South 5.8 mph - N/A   Clear
2:53 PM 52.0 °F - 27.0 °F 38% 30.51 in 10.0 mi SSW 5.8 mph - N/A   Clear
3:53 PM 50.0 °F - 28.0 °F 43% 30.50 in 10.0 mi South 3.5 mph - N/A   Clear
4:53 PM 46.9 °F - 27.0 °F 46% 30.48 in 10.0 mi SSE 3.5 mph - N/A   Clear
5:53 PM 39.0 °F - 27.0 °F 62% 30.48 in 9.0 mi Calm Calm - N/A   Clear
6:53 PM 37.9 °F 35.5 °F 26.1 °F 62% 30.47 in 10.0 mi SE 3.5 mph - N/A   Clear
7:53 PM 39.0 °F 34.8 °F 26.1 °F 60% 30.46 in 10.0 mi SE 5.8 mph - N/A   Clear
8:53 PM 39.9 °F 36.7 °F 26.1 °F 58% 30.47 in 10.0 mi SE 4.6 mph - N/A   Clear
9:53 PM 39.0 °F 34.8 °F 26.1 °F 60% 30.46 in 10.0 mi SSE 5.8 mph - N/A   Clear
10:53 PM 37.9 °F 33.5 °F 26.1 °F 62% 30.45 in 10.0 mi SSE 5.8 mph - N/A   Clear
11:53 PM 32.0 °F 27.5 °F 24.1 °F 73% 30.43 in 10.0 mi ESE 4.6 mph - N/A   Clear